Other Public Products
Issued by NWS Grand Forks, ND

Home | Current Version | Previous Version | Graphics & Text | Print | Product List | Glossary On
Versions: 1 2 3 4 5 6 7 8 9 10 11 12 13 14 15 16 17 18 19 20 21 22 23 24 25 26 27 28 29 30 31 32 33 34 35 36 37 38 39 40 41 42 43 44 45 46 47 48 49 50
000
FPUS83 KFGF 220631
OPUFGF
PRAIRIE TO PINES WEATHER ROUNDUP
NATIONAL WEATHER SERVICE EASTERN NORTH DAKOTA/GRAND FORKS ND
1200 AM CST MON DEC 22 2014

 **SATELLITE DATA USED TO AUGMENT SKY COVER AT AUTOMATED STATIONS**
 *****  WEATHER ACROSS EASTERN NORTH DAKOTA  *****

CITY           SKY/WX    TMP DP  RH WIND       PRES   REMARKS
GRAND FORKS    CLOUDY    33  32  96 SE6       29.55F
6HR MIN TEMP:  32; 6HR MAX TEMP:  34; 6HR PCP: TRACE;

GRAND FORKS AF CLOUDY    32  32 100 SE6       29.54F
GRAND CITY NWS   N/A     32 N/A N/A SE7         N/A
BUXTON           N/A     33  33  99 E6          N/A
DEVILS LAKE    CLOUDY    30  25  80 S6        29.49S WCI  24
6HR MIN TEMP:  28; 6HR MAX TEMP:  30;

FARGO          CLOUDY    37  34  89 SE8       29.54F FOG
6HR MIN TEMP:  35; 6HR MAX TEMP:  37;

WAHPETON ARPT  CLOUDY    34  32  93 SE10      29.54F
$$

 *****  WEATHER ACROSS CENTRAL AND WESTERN NORTH DAKOTA  *****

CITY           SKY/WX    TMP DP  RH WIND       PRES   REMARKS
JAMESTOWN      CLOUDY    32  31  96 SE7       29.47S FOG
6HR MIN TEMP:  30; 6HR MAX TEMP:  32;

BISMARCK       CLOUDY    28  28 100 SE7       29.45S FOG     WCI  21
6HR MIN TEMP:  28; 6HR MAX TEMP:  30;

MINOT          CLOUDY    29  27  92 E9        29.44R FOG     WCI  20
6HR MIN TEMP:  29; 6HR MAX TEMP:  34;

MINOT AFB      FRZ DRZL  30  30 100 SE10      29.43F FOG     WCI  21
6HR MIN TEMP:  29; 6HR MAX TEMP:  33; 6HR PCP: TRACE;

GARRISON         N/A     29  28  96 SE8       29.42R WCI  21
6HR MIN TEMP:  26; 6HR MAX TEMP:  34;

WILLISTON      CLOUDY    31  29  92 SW3       29.40R
6HR MIN TEMP:  29; 6HR MAX TEMP:  35;

DICKINSON      CLOUDY    37  34  89 W13       29.38R
6HR MIN TEMP:  36; 6HR MAX TEMP:  40; 6HR PCP:  0.05;

HETTINGER      CLOUDY    37  34  89 W12       29.43R
6HR MIN TEMP:  34; 6HR MAX TEMP:  38; 6HR PCP: TRACE;

$$

 *****  OTHER OBSERVATIONS NORTHEAST NORTH DAKOTA  *****

CITY           SKY/WX    TMP DP  RH WIND       PRES   REMARKS
WALHALLA         N/A     32  32 100 SE8       29.56S FOG     WCI  25
LANGDON        FOG       30  30 100 S12       29.52S VSB 1   WCI  21
CAVALIER       CLOUDY    32  32 100 SE7       29.56F FOG
GRAFTON        NOT AVBL
CANDO          CLOUDY    28  28 100 SE9       29.50F FOG     WCI  20
FORT TOTTEN    NOT AVBL
ROLLA          FOG       27  27 100 S14       29.49F VSB 3/4 WCI  15
RUGBY          CLOUDY    28  28 100 SE10      29.48S FOG     WCI  19
 ***** THE ABOVE OBSERVATIONS ARE NON NWS ARE NOT QUALITY
        CONTROLLED AND MAY MIS-REPORT RAIN FOR SNOW...
$$

 *****  OTHER OBSERVATIONS SOUTHEAST NORTH DAKOTA *****

CITY           SKY/WX    TMP DP  RH WIND       PRES   REMARKS
COOPERSTOWN    NOT AVBL
VALLEY CITY    CLOUDY    32  32 100 SE9       29.49F FOG     WCI  24
OAKES            N/A     34  34 100 E8        29.48F FOG
GWINNER        CLOUDY    34  34 100 SE8       29.50F
SHEYENNE NWR     N/A     34  34  99 SE7       29.95S
BUFFALO        NOT AVBL
WYNDMERE         N/A     34  36 100 SE7         N/A
 ***** THE ABOVE OBSERVATIONS ARE NON NWS ARE NOT QUALITY
       CONTROLLED AND MAY MIS-REPORT RAIN FOR SNOW...
$$

  *****  WEATHER ACROSS NORTHERN MINNESOTA  *****

CITY           SKY/WX    TMP DP  RH WIND       PRES   REMARKS
FLAG ISLAND    CLOUDY    32  30  93 SE13      29.62F WCI  22
WARROAD        CLOUDY    34  28  80 SE7       29.62F
ROSEAU         CLOUDY    34  30  86 SE6       29.61S
HALLOCK        CLOUDY    34  32  93 CALM      29.58S
THF RVR FALLS  CLOUDY    34  32  93 E8        29.58F
6HR MIN TEMP:  32; 6HR MAX TEMP:  34;

HALSTAD          N/A     34  34  99 SE9         N/A
FOSSTON        CLOUDY    34  30  86 SE8       29.58F
BAUDETTE       CLOUDY    33  30  88 SE5       29.63S
6HR MIN TEMP:  31; 6HR MAX TEMP:  33;

WASKISH        CLOUDY    34  32  93 CALM      29.62F
CROOKSTON      MOCLDY    34  34 100 SE8       29.57F
$$
  *****  WEATHER ACROSS CENTRAL AND WEST MINNESOTA  *****

CITY           SKY/WX    TMP DP  RH WIND       PRES   REMARKS
BEMIDJI        CLOUDY    33  32  99 SE7       29.60S FOG
PARK RAPIDS    CLOUDY    34  34 100 SE12      29.59F FOG
6HR MIN TEMP:  33; 6HR MAX TEMP:  34; 6HR PCP: TRACE;

WADENA         CLOUDY    34  34 100 SE9       29.59F FOG
DETROIT LAKES  CLOUDY    34  34 100 SE10      29.56F FOG
MOORHEAD       CLOUDY    36  36 100 SE7       29.55F FOG
FERGUS FALLS   CLOUDY    36  36 100 SE13      29.57F FOG
ELBOW LAKE     CLOUDY    35  35  99 SE16      29.55F FOG     WCI  25
6HR MIN TEMP:  33; 6HR MAX TEMP:  35;

MORRIS MN      MOCLDY    36  36 100 SE16      29.55S FOG
STAPLES        CLOUDY    34  34 100 SE8       29.62S FOG
WHEATON        CLOUDY    32  32 100 SE12      29.55S FOG     WCI  23
$$
  *****  WEATHER ELSEWHERE ACROSS MINNESOTA  *****

CITY           SKY/WX    TMP DP  RH WIND       PRES   REMARKS
DULUTH         FOG       34  32  92 S9        29.70S VSB 1/4
6HR MIN TEMP:  32; 6HR MAX TEMP:  34; 6HR PCP:  0.01;

INTRNTL FALLS  CLOUDY    32  31  96 SE7       29.67S
6HR MIN TEMP:  32; 6HR MAX TEMP:  32;

ELY            CLOUDY    34  32  93 S8        29.71S FOG
CLOQUET        FOG       34  34 100 SE5       29.70S VSB 1/2
BRAINERD       CLOUDY    35  34  96 SE9       29.65F FOG
6HR MIN TEMP:  33; 6HR MAX TEMP:  35; 6HR PCP: TRACE;

HIBBING        CLOUDY    34  31  88 SE7       29.68S FOG
6HR MIN TEMP:  33; 6HR MAX TEMP:  34;

ALEXANDRIA     CLOUDY    35  34  96 SE12      29.59S FOG
6HR MIN TEMP:  33; 6HR MAX TEMP:  35;

SAINT CLOUD    CLOUDY    38  35  89 SE13      29.66F FOG
6HR MIN TEMP:  36; 6HR MAX TEMP:  38; 6HR PCP: TRACE;

MINNEAPOLIS    CLOUDY    38  36  92 SE9       29.72S FOG
6HR MIN TEMP:  36; 6HR MAX TEMP:  39; 6HR PCP:  0.04;

$$

  *****  WEATHER ACROSS SOUTH DAKOTA  *****

CITY           SKY/WX    TMP DP  RH WIND       PRES   REMARKS
SIOUX FALLS    CLOUDY    40  37  89 S21G30    29.54S
6HR MIN TEMP:  37; 6HR MAX TEMP:  40;

BROOKINGS      NOT AVBL
WATERTOWN      CLOUDY    36  35  96 S13       29.47S
6HR MIN TEMP:  34; 6HR MAX TEMP:  36;

HURON          CLOUDY    36  34  92 S10       29.44F
6HR MIN TEMP:  35; 6HR MAX TEMP:  37;

SISSETON         N/A     35  35 100 SE13      29.50F
ABERDEEN       CLOUDY    36  33  89 S8        29.46F
6HR MIN TEMP:  32; 6HR MAX TEMP:  36;

MITCHELL       LGT RAIN  38  36  92 S13       29.48S
PIERRE         CLOUDY    28  26  92 W5        29.42S WCI  23
6HR MIN TEMP:  24; 6HR MAX TEMP:  32;

MOBRIDGE       FOG       29  28  96 SE3       29.41S VSB 1/4
RAPID CITY     LGT RAIN  41  33  73 NW23G35   29.49R
6HR MIN TEMP:  37; 6HR MAX TEMP:  42; 6HR PCP: TRACE;

$$

  *****  SOME WEATHER IN NEARBY STATES *****

CITY           SKY/WX    TMP DP  RH WIND       PRES   REMARKS
GLASGOW MT     CLOUDY    35  30  82 NW22G29   29.49R WCI  23
6HR MIN TEMP:  32; 6HR MAX TEMP:  37; 6HR PCP: TRACE;

GREAT FALLS MT CLEAR     29  22  75 W10       29.70R WCI  20
6HR MIN TEMP:  26; 6HR MAX TEMP:  41;

CHEYENNE WY    PTCLDY    31  21  66 NW16G23   29.64R WCI  20
6HR MIN TEMP:  30; 6HR MAX TEMP:  39; 6HR PCP:  0.05;

SCOTTSBLUFF NE MOCLDY    36  31  82 W15       29.61R
6HR MIN TEMP:  36; 6HR MAX TEMP:  41; 6HR PCP: TRACE;

OMAHA NE       DRIZZLE   43  42  97 S17       29.65F FOG
6HR MIN TEMP:  42; 6HR MAX TEMP:  43; 6HR PCP:  0.01;

DES MOINES IA  LGT RAIN  43  38  82 S18G25    29.76S
6HR MIN TEMP:  42; 6HR MAX TEMP:  44; 6HR PCP: TRACE;

DAVENPORT IA   CLOUDY    35  29  78 SE14      29.91F
6HR MIN TEMP:  35; 6HR MAX TEMP:  36; 6HR PCP: TRACE;

CHICAGO IL     MOCLDY    31  27  85 SE10      30.01F WCI  22
6HR MIN TEMP:  31; 6HR MAX TEMP:  36;

EAU CLAIRE WI  CLOUDY    37  34  89 S13       29.80R
6HR MIN TEMP:  36; 6HR MAX TEMP:  38; 6HR PCP:  0.02;

LA CROSSE WI   CLOUDY    38  34  85 S12       29.84F
6HR MIN TEMP:  38; 6HR MAX TEMP:  39; 6HR PCP:  0.01;

$$

  *****  SOME NATIONAL WEATHER *****

CITY           SKY/WX    TMP DP  RH WIND       PRES   REMARKS


USA.gov is the U.S. government's official web portal to all federal, state and local government web resources and services.